Zurück zum Katalog

STARLINK-35649

AktivKommunikationVLEO
NORAD 66125·PAYLOAD·🇺🇸 United States

Gestartet Oct 22, 2025 von Vandenberg Space Force Base

Loading…

Nächste Überflüge (nächste 24 Stunden)

TLE

AktuellSource: CelesTrak SupGP

Epoche: Sep 14, 2026, 22:59 UTC

1 66125C 25237M   26257.95812500  .00024367  00000+0  71978-3 0  2574
2 66125  53.1567 237.4376 0001307 104.7467 174.8498 15.34384426    13

Verfolge STARLINK-35649 in Echtzeit mit AllMySat

Download on the App Store